Location: �perlecques
(50.8057°N, 2.1521°E)
Time: 00:12:08
(UTC+00:00)

VELOX 1 - Pass Details

Date: 29 September 2021
Orbit: 627 x 642 km, 98.3° (Epoch: 21 October)

Event Time Altitude Azimuth Distance (km) Brightness Sun altitude
Exits shadow 02:34:56 33° 97° (E) 1,059 ? -29.5°
Maximum altitude 02:35:55 38° 66° (ENE) 967 ? -29.4°
Drops below altitude 10° 02:39:59 10° 359° (N) 2,018 ? -28.9°
Sets 02:42:17 0° 352° (N) 2,929 ? -28.6°
